Regional Weather Roundup
Issued by NWS Grand Forks, ND

Home | Current Version | Previous Version | Text Only | Print | Product List | Glossary On
Versions: 1 2 3 4 5 6 7 8 9 10 11 12 13 14 15 16 17 18 19 20 21 22 23 24 25 26 27 28 29 30 31 32 33 34 35 36 37 38 39 40 41 42 43 44 45 46 47 48 49 50
000
ASUS43 KFGF 011210
RWRFGF
PRAIRIE TO PINES  WEATHER ROUNDUP
NATIONAL WEATHER SERVICE EASTERN NORTH DAKOTA/GRAND FORKS ND
700 AM CDT TUE SEP 01 2015

 **SATELLITE DATA USED TO AUGMENT SKY COVER AT AUTOMATED STATIONS**
 *****  WEATHER ACROSS EASTERN NORTH DAKOTA  *****

CITY           SKY/WX    TMP DP  RH WIND       PRES   REMARKS
GRAND FORKS    FAIR      54  49  83 S3        29.85F
6HR MIN TEMP:  50; 6HR MAX TEMP:  61;

GRAND FRKS AFB PTCLDY    52  49  87 SW5       29.86F
GRAND FRKS NWS   N/A     52 N/A N/A W1          N/A
DEVILS LAKE    CLEAR     63  46  55 SE3       29.85S
6HR MIN TEMP:  55; 6HR MAX TEMP:  64;

FARGO          FOG       58  56  93 CALM      29.88S VSB 1/4
WAHPETON ARPT  NOT AVBL
$$

 ***** WEATHER ACROSS CENTRAL AND WESTERN NORTH DAKOTA  *****

CITY           SKY/WX    TMP DP  RH WIND       PRES   REMARKS
BISMARCK       CLEAR     51  50  96 E3        29.88S
6HR MIN TEMP:  51; 6HR MAX TEMP:  57;

MINOT          CLEAR     55  47  74 SW9       29.83R
6HR MIN TEMP:  54; 6HR MAX TEMP:  61;

JAMESTOWN      CLEAR     52  49  89 SE3       29.88S
6HR MIN TEMP:  52; 6HR MAX TEMP:  57;

MINOT AFB      NOT AVBL
GARRISON         N/A     53  49  86 CALM      29.86S
WILLISTON      CLEAR     47  42  83 CALM      29.83S
6HR MIN TEMP:  46; 6HR MAX TEMP:  56;

DICKINSON      CLEAR     58  52  80 S10       29.85F
6HR MIN TEMP:  53; 6HR MAX TEMP:  60;

HETTINGER      CLEAR     53  50  89 SE6       29.89F
6HR MIN TEMP:  50; 6HR MAX TEMP:  61;

$$

 *****  OTHER AIRPORT OBSERVATIONS IN OUR AREA  *****

CITY           SKY/WX    TMP DP  RH WIND       PRES   REMARKS
WALHALLA       FAIR      55  50  82 MISG      29.84S
GRAFTON AIRPOR FAIR      50  50 100 S3        29.86S
VALLEY CITY AR FAIR      54  54 100 CALM      29.89S
CANDO          NOT AVBL
CAVALIER APRT  FAIR      50  48  93 SW3       29.84S
GWINNER          N/A     57  57 100 CALM      29.90S
SHEYENNE NWR     N/A     55  55  99 CALM      29.95S
ROLLA          FAIR      48  45  87 SW5       29.86S
 ***** THE ABOVE OBSERVATIONS ARE NON NWS ARE NOT QUALITY
       CONTROLLED AND MAY MIS-REPORT RAIN FOR SNOW...
$$

  *****  WEATHER ACROSS NORTHERN MINNESOTA  *****

CITY           SKY/WX    TMP DP  RH WIND       PRES   REMARKS
FLAG ISLAND    PTCLDY    61  52  72 SW10      29.84S
WARROAD        PTCLDY    54  50  87 S7        29.88S
ROSEAU         PTCLDY    52  46  82 S5        29.87S
HALLOCK        CLEAR     50  46  87 SE7       29.85S
THF RVR FALLS  PTCLDY   N/A N/A N/A SE5       29.88S
BAUDETTE       PTCLDY    51  49  92 CALM      29.87S
6HR MIN TEMP:  51; 6HR MAX TEMP:  63;

WASKISH        FOG       52  52 100 CALM      29.90S VSB 1/2
CROOKSTON      PTCLDY    54  52  94 S5        29.88F
STEPHEN NDAWN    N/A     54  52  94 SE3         N/A
GREENBUSH NDAW   N/A     54  52  94 S3          N/A
$$
  *****  WEATHER ACROSS CENTRAL AND WEST MINNESOTA  *****

CITY           SKY/WX    TMP DP  RH WIND       PRES   REMARKS
FOSSTON          N/A     54  52  94 CALM      29.91S FOG
BEMIDJI        FOG       49  49 100 CALM      29.91S VSB<1/4
PARK RAPIDS    FOG       57  55  93 NW3       29.91F VSB 1/4
6HR MIN TEMP:  56; 6HR MAX TEMP:  64;

ELBOW LAKE     FAIR      66  65  96 CALM      29.91S
6HR MIN TEMP:  64; 6HR MAX TEMP:  68;

WADENA         FOG       59  59 100 CALM      29.92S VSB<1/4
DETROIT LAKES  FOG       59  59 100 CALM      29.92S VSB<1/4
MOORHEAD       MOCLDY    55  55 100 CALM      29.90S FOG
FERGUS FALLS   MOCLDY    64  64 100 CALM      29.90R
MORRIS MN      CLOUDY    66  64  94 CALM      29.90S FOG
STAPLES        FOG       61  61 100 CALM      29.92R VSB 3/4
$$
  *****  WEATHER ELSEWHERE ACROSS MINNESOTA  *****

CITY           SKY/WX    TMP DP  RH WIND       PRES   REMARKS
DULUTH         MOCLDY    68  66  93 SW3       29.91R FOG
6HR MIN TEMP:  67; 6HR MAX TEMP:  72; 6HR PCP: TRACE;

INTRNTL FALLS  FOG       50  50 100 CALM      29.89R VSB 3/4
6HR MIN TEMP:  48; 6HR MAX TEMP:  64;

ELY            FOG       63  61  94 CALM      29.91S VSB<1/4
CLOQUET        MOCLDY    66  64  94 CALM      29.92R FOG
WHEATON        CLOUDY    57  57 100 CALM      29.92S FOG
BRAINERD       CLOUDY    65  65 100 CALM      29.92S FOG
6HR MIN TEMP:  64; 6HR MAX TEMP:  71;

HIBBING        FOG       59  58  96 CALM      29.91S VSB 1
6HR MIN TEMP:  58; 6HR MAX TEMP:  71; 6HR PCP: TRACE;

ALEXANDRIA     CLOUDY    67  64  90 NE5       29.93S
6HR MIN TEMP:  64; 6HR MAX TEMP:  70;

SAINT CLOUD    CLOUDY    68  67  96 CALM      29.91R FOG
6HR MIN TEMP:  67; 6HR MAX TEMP:  70;

MINNEAPOLIS    CLOUDY    70  66  87 SE6       29.92S FOG
6HR MIN TEMP:  69; 6HR MAX TEMP:  76;

$$

  *****  WEATHER ACROSS SOUTH DAKOTA  *****

CITY           SKY/WX    TMP DP  RH WIND       PRES   REMARKS
SIOUX FALLS    CLOUDY    68  66  93 E3        29.89S FOG
6HR MIN TEMP:  68; 6HR MAX TEMP:  73;

BROOKINGS      CLOUDY    68  64  88 NE3       29.92R
WATERTOWN      MOCLDY    67  64  90 VRB3      29.90S
6HR MIN TEMP:  65; 6HR MAX TEMP:  68;

HURON          MOCLDY    62  61  96 NE3       29.86S
6HR MIN TEMP:  62; 6HR MAX TEMP:  66;

SISSETON         N/A     58  57  97 CALM      29.89S
ABERDEEN       PTCLDY    56  55  97 E6        29.88F FOG
6HR MIN TEMP:  55; 6HR MAX TEMP:  63;

MITCHELL       CLOUDY    65  64  97 CALM      29.86F
PIERRE         PTCLDY    59  58  96 NE5       29.85S
6HR MIN TEMP:  57; 6HR MAX TEMP:  62;

MOBRIDGE       CLEAR     58  58 100 E5        29.86S
RAPID CITY     CLEAR     53  52  96 CALM      29.88F
6HR MIN TEMP:  52; 6HR MAX TEMP:  61;

$$

  *****  SOME WEATHER IN NEARBY STATES *****

CITY           SKY/WX    TMP DP  RH WIND       PRES   REMARKS
GLASGOW MT     CLEAR     52  43  71 E9        29.79S
6HR MIN TEMP:  51; 6HR MAX TEMP:  56;

GREAT FALLS MT CLOUDY    61  40  45 SW10      29.83S
6HR MIN TEMP:  56; 6HR MAX TEMP:  63;

CHEYENNE WY    CLEAR     53  43  68 W7        30.13S
6HR MIN TEMP:  51; 6HR MAX TEMP:  56;

SCOTTSBLUFF NE PTCLDY    56  53  90 CALM      29.98F
6HR MIN TEMP:  55; 6HR MAX TEMP:  62;

OMAHA NE       PTCLDY    71  68  90 S9        29.94R
6HR MIN TEMP:  69; 6HR MAX TEMP:  74;

DES MOINES IA  PTCLDY    69  66  90 S7        29.97R FOG
6HR MIN TEMP:  69; 6HR MAX TEMP:  74;

DAVENPORT IA   PTCLDY    72  70  93 S6        30.03R FOG
6HR MIN TEMP:  72; 6HR MAX TEMP:  76;

CHICAGO IL     PTCLDY    72  70  93 S5        30.05R FOG
6HR MIN TEMP:  68; 6HR MAX TEMP:  72;

EAU CLAIRE WI  PTCLDY    69  68  96 S3        29.95R FOG
6HR MIN TEMP:  67; 6HR MAX TEMP:  73;

LA CROSSE WI   CLEAR     69  68  96 SE6       29.96S FOG
6HR MIN TEMP:  69; 6HR MAX TEMP:  73;

$$

  *****  SOME NATIONAL WEATHER *****

CITY           SKY/WX    TMP DP  RH WIND       PRES   REMARKS
LA GUARDIA NY  SUNNY     77  67  71 NE9       30.03R
6HR MIN TEMP:  76; 6HR MAX TEMP:  81;

RALEIGH NC     MOSUNNY   69  68  96 CALM      30.11R
6HR MIN TEMP:  67; 6HR MAX TEMP:  70;

ATLANTA GA     PTCLDY    72  67  84 CALM      30.15R
6HR MIN TEMP:  69; 6HR MAX TEMP:  73;

NEW ORLEANS LA CLOUDY    77  69  76 CALM      30.04S
6HR MIN TEMP:  75; 6HR MAX TEMP:  79;

OKLAHOMA CITY  PTCLDY    67  64  90 S6        30.03S
6HR MIN TEMP:  66; 6HR MAX TEMP:  74;

ALBUQUERQUE NM PTCLDY    66  48  52 SE6       30.17R
6HR MIN TEMP:  65; 6HR MAX TEMP:  76;

SALT LAKE CITY PTCLDY    73  47  39 SE13      29.95S
6HR MIN TEMP:  72; 6HR MAX TEMP:  75;

LOS ANGELES CA MOCLDY    70  60  70 SE6       29.90S


USA.gov is the U.S. government's official web portal to all federal, state and local government web resources and services.